Weather History for Valdosta, GA

Change the Weather History Date:

Thursday, November 22, 2012

  Actual Average Record
Temperature  
Mean Temperature 54 °F -  
Max Temperature 69 °F 67 °F 82 °F (1997)
Min Temperature 39 °F 47 °F 28 °F (2000)
Degree Days  
Heating Degree Days 11    
Growing Degree Days 4 (Base 50)    
Moisture  
Dew Point 38 °F    
Average Humidity 64    
Maximum Humidity 94    
Minimum Humidity 28    
Precipitation  
Precipitation 0.00 in - - ()
Sea Level Pressure  
Sea Level Pressure 30.19 in    
Wind  
Wind Speed 2 mph (NNE)    
Max Wind Speed 12 mph    
Max Gust Speed -    
Visibility 10 miles    
Events      
Averages and records for this station are not official NWS values.
T = Trace of Precipitation, MM = Missing Value Source: NWS Daily Summary

Daily Weather History Graph

Daily Weather History Graph

Search for Another Location

Airport:

Trip Planner

Search our weather history database for the weather conditions in past years. The results will help you decide how hot, cold, wet, or windy it might be!

Date:

Astronomy

Nov. 22, 2012 Rise Set
Actual Time 7:05 AM EST 5:31 PM EST
Civil Twilight 6:40 AM EST 5:57 PM EST
Nautical Twilight 6:10 AM EST 6:27 PM EST
Astronomical Twilight 5:41 AM EST 6:56 PM EST
Moon 1:59 PM EST (11/22) 1:44 AM EST (11/22)
Length of Visible Light 11h 17m
Length of Day
10h 25m
Waxing Gibbous, 71% of the Moon is Illuminated
Nov 22
Waxing Gibbous
Nov 28
Full
Dec 6
Last Quarter
Dec 13
New
Dec 20
First Quarter

Hourly Weather History & Observations

Time (EST) Temp. Windchill Dew Point Humidity Pressure Visibility Wind Dir Wind Speed Gust Speed Precip Events Conditions
12:55 AM 45.7 °F - 40.8 °F 83% 30.14 in 10.0 mi Calm Calm - N/A   Clear
1:55 AM 43.0 °F - 39.6 °F 88% 30.15 in 10.0 mi Calm Calm - N/A   Clear
2:55 AM 42.3 °F - 39.7 °F 91% 30.16 in 10.0 mi Calm Calm - N/A   Clear
3:55 AM 41.4 °F - 38.8 °F 91% 30.15 in 10.0 mi Calm Calm - N/A   Clear
4:55 AM 40.5 °F 38.4 °F 38.8 °F 94% 30.16 in 10.0 mi North 3.5 mph - N/A   Clear
5:55 AM 39.9 °F - 37.6 °F 91% 30.17 in 10.0 mi Calm Calm - N/A   Clear
6:55 AM 41.0 °F 39.0 °F 37.6 °F 88% 30.19 in 10.0 mi North 3.5 mph - N/A   Clear
7:55 AM 44.6 °F - 39.4 °F 82% 30.22 in 10.0 mi Calm Calm - N/A   Clear
8:55 AM 50.5 °F - 39.9 °F 67% 30.22 in 10.0 mi ENE 5.8 mph - N/A   Clear
9:55 AM 57.6 °F - 39.4 °F 51% 30.24 in 10.0 mi NNE 6.9 mph - N/A   Clear
10:55 AM 62.8 °F - 33.6 °F 34% 30.24 in 10.0 mi NE 4.6 mph - N/A   Clear
11:55 AM 65.5 °F - 33.3 °F 30% 30.22 in 10.0 mi NNE 9.2 mph - N/A   Clear
12:55 PM 67.8 °F - 34.2 °F 29% 30.19 in 10.0 mi NE 6.9 mph - N/A   Clear
1:55 PM 69.4 °F - 34.7 °F 28% 30.17 in 10.0 mi North 10.4 mph - N/A   Clear
2:55 PM 69.6 °F - 35.4 °F 28% 30.16 in 10.0 mi North 9.2 mph - N/A   Clear
3:55 PM 69.3 °F - 36.0 °F 29% 30.15 in 10.0 mi North 11.5 mph - N/A   Clear
4:55 PM 66.7 °F - 37.8 °F 34% 30.16 in 10.0 mi North 5.8 mph - N/A   Clear
5:55 PM 56.3 °F - 39.6 °F 53% 30.18 in 10.0 mi Calm Calm - N/A   Clear
6:55 PM 54.9 °F - 39.2 °F 56% 30.19 in 10.0 mi Calm Calm - N/A   Clear
7:55 PM 51.3 °F - 39.2 °F 63% 30.20 in 10.0 mi Calm Calm - N/A   Clear
8:55 PM 46.9 °F - 39.7 °F 76% 30.21 in 10.0 mi Calm Calm - N/A   Clear
9:55 PM 46.0 °F - 39.6 °F 78% 30.21 in 10.0 mi Calm Calm - N/A   Clear
10:55 PM 44.6 °F - 38.8 °F 80% 30.21 in 10.0 mi Calm Calm - N/A   Clear
11:55 PM 43.0 °F - 38.3 °F 84% 30.20 in 10.0 mi Calm Calm - N/A   Clear